Powrót do katalogu

STARLINK-31932

AktywnyŁącznośćVLEO
NORAD 59929·PAYLOAD·🇺🇸 United States

Wystrzelony Jun 1, 2024 z Cape Canaveral Space Force Station

Loading…

Następne Przeloty (najbliższe 24 godziny)

TLE

ŚwieżeSource: CelesTrak SupGP

Epoka: Sep 14, 2026, 22:20 UTC

1 59929C 24106H   26257.93104167 -.00025671  00000+0 -92975-3 0  2574
2 59929  43.0036 340.5825 0001650 273.7549 337.1060 15.27593505    11

Śledź STARLINK-31932 w czasie rzeczywistym z AllMySat

Download on the App Store